Sion Airport

Airport
ICAO code: 
LSGS
IATA Code: 
SIR
Summary
ICAO Region: 
EUR
Territory: 
Location: 
Sion, Valais
Serving: 
Sion
Elevation: 
1585 ft
Coordinates: 
Aerial View: 
46° 13' 10.531" N, 7° 19' 36.35" E
Metar
Observation
LSGS 201120Z VRB02KT 9999 SCT080 03/M02 Q1026
Station
Sion
Date/Time
2022-01-20 11:20:00
Wind speed
02 kts
Lowest cloud amount
scattered clouds
Temperature
3°C
Dew point
-2°C
Humidity
69%
QNH
1026 hPa
Weather condition
n/a

Sion Airport is the airport of the city of Sion, Switzerland and is located 2.5 km SW of Sion in the Rhone Valley.

Climatology

Temperate Marine climate/Oceanic climate (Köppen climate classification Cfb).

Runways

Designator Length Width Surface Rops
7/25 0 0 UNK Yes/Yes
07L/25R 555 30 GRS No/No
07R/25L 2000 40 ASP No/No
Airport map: 
Aerial View: 

SKYbrary Partners:

Safety knowledge contributed by: